Palma de Mallorca, Spain

11:49 AM CEST on June 26, 2017 (GMT +0200)
Palma De Mallorca

Weather History for LEPA - September, 2013

Change the Weather History Date:

Monday, September 9, 2013

  Actual Average Record
Temperature  
Mean Temperature 76 °F -  
Max Temperature 85 °F 77 °F 94 °F (2014)
Min Temperature 67 °F 59 °F 57 °F (2000)
Cooling Degree Days 11    
Growing Degree Days 26 (Base 50)    
Moisture  
Dew Point 67 °F    
Average Humidity 80    
Maximum Humidity 94    
Minimum Humidity 37    
Precipitation  
Precipitation 0.20 in 0.07 in - ()
Sea Level Pressure  
Sea Level Pressure 30.18 in    
Wind  
Wind Speed 4 mph ()    
Max Wind Speed 13 mph    
Max Gust Speed 16 mph    
Visibility 6.8 miles    
Events Rain    
Averages and records for this station are not official NWS values.
T = Trace of Precipitation, MM = Missing Value Source: Averaged Metar Reports

Daily Weather History Graph

Daily Weather History Graph

Search for Another Location

Airport or City:

Trip Planner

Search our weather history database for the weather conditions in past years. The results will help you decide how hot, cold, wet, or windy it might be!

Date:

Astronomy

Sep. 09, 2013 Rise Set
Actual Time 7:24 AM CEST 8:07 PM CEST
Civil Twilight 6:57 AM CEST 8:34 PM CEST
Nautical Twilight 6:25 AM CEST 9:06 PM CEST
Astronomical Twilight 5:52 AM CEST 9:39 PM CEST
Moon 11:28 AM CEST (9/9) 10:14 PM CEST (9/9)
Length of Visible Light 13h 37m
Length of Day
12h 42m
Waxing Crescent, 16% of the Moon is Illuminated
Sep 9
Waxing Crescent
Sep 12
First Quarter
Sep 19
Full
Sep 27
Last Quarter
Oct 5
New

Hourly Weather History & Observations

Time (CEST) Temp. Heat Index Dew Point Humidity Pressure Visibility Wind Dir Wind Speed Gust Speed Precip Events Conditions
12:00 AM 73.4 °F - 69.8 °F 88% 30.18 in 6.2 mi South 3.5 mph - N/A   Partly Cloudy
12:30 AM 71.6 °F - 68.0 °F 88% 30.18 in 6.2 mi North 3.5 mph - N/A   Partly Cloudy
1:00 AM 71.6 °F - 68.0 °F 88% 30.18 in 6.2 mi Variable 1.2 mph - N/A   Partly Cloudy
1:30 AM 71.6 °F - 66.2 °F 83% 30.18 in 6.2 mi Calm Calm - N/A   Partly Cloudy
2:00 AM 69 °F - 67 °F 89% 30.20 in 9 mi NE 2.3 mph - -   Scattered Clouds
2:00 AM 69.8 °F - 66.2 °F 88% 30.18 in 6.2 mi Calm Calm - N/A   Partly Cloudy
2:30 AM 69.8 °F - 66.2 °F 88% 30.18 in 6.2 mi NE 2.3 mph - N/A   Partly Cloudy
3:00 AM 69.8 °F - 66.2 °F 88% 30.18 in 6.2 mi SSE 1.2 mph - N/A   Partly Cloudy
3:30 AM 68.0 °F - 66.2 °F 94% 30.18 in 6.2 mi Calm Calm - N/A   Partly Cloudy
4:00 AM 68.0 °F - 66.2 °F 94% 30.18 in 6.2 mi NE 3.5 mph - N/A   Partly Cloudy
4:30 AM 68.0 °F - 66.2 °F 94% 30.18 in 6.2 mi NE 2.3 mph - N/A   Partly Cloudy
5:00 AM 69.8 °F - 66.2 °F 88% 30.15 in 6.2 mi Variable 2.3 mph - N/A   Partly Cloudy
5:30 AM 68.0 °F - 66.2 °F 94% 30.15 in 6.2 mi Variable 2.3 mph - N/A   Partly Cloudy
6:00 AM 68.0 °F - 66.2 °F 94% 30.15 in 6.2 mi NNE 2.3 mph - N/A   Partly Cloudy
6:30 AM 69.8 °F - 66.2 °F 88% 30.15 in 6.2 mi Calm Calm - N/A   Partly Cloudy
7:00 AM 69.8 °F - 66.2 °F 88% 30.15 in 6.2 mi Variable 1.2 mph - N/A   Partly Cloudy
7:30 AM 68.0 °F - 66.2 °F 94% 30.15 in 6.2 mi ENE 6.9 mph - N/A   Partly Cloudy
8:00 AM 69 °F - 67 °F 89% 30.18 in 14 mi East 5.8 mph - -   Scattered Clouds
8:00 AM 69.8 °F - 66.2 °F 88% 30.18 in 6.2 mi ENE 5.8 mph - N/A   Partly Cloudy
8:30 AM 69.8 °F - 68.0 °F 94% 30.18 in 6.2 mi ENE 9.2 mph - N/A   Partly Cloudy
9:00 AM 71.6 °F - 68.0 °F 88% 30.18 in 6.2 mi NE 6.9 mph - N/A   Partly Cloudy
9:30 AM 73.4 °F - 68.0 °F 83% 30.18 in 6.2 mi ENE 4.6 mph - N/A   Partly Cloudy
10:00 AM 75.2 °F - 68.0 °F 78% 30.21 in 6.2 mi ENE 10.4 mph - N/A   Partly Cloudy
10:30 AM 77.0 °F - 68.0 °F 74% 30.21 in 6.2 mi NE 12.7 mph - N/A   Partly Cloudy
11:00 AM 78.8 °F - 66.2 °F 65% 30.21 in 6.2 mi ENE 12.7 mph - N/A   Partly Cloudy
11:30 AM 78.8 °F - 66.2 °F 65% 30.21 in 6.2 mi ENE 10.4 mph - N/A   Partly Cloudy
12:00 PM 80.6 °F 82.7 °F 66.2 °F 61% 30.18 in 6.2 mi East 6.9 mph - N/A   Partly Cloudy
12:30 PM 82.4 °F 83.9 °F 64.4 °F 54% 30.21 in 6.2 mi NE 8.1 mph - N/A   Scattered Clouds
1:00 PM 82.4 °F 83.9 °F 64.4 °F 54% 30.18 in 6.2 mi ENE 6.9 mph - N/A   Scattered Clouds
1:30 PM 84.2 °F 85.6 °F 64.4 °F 51% 30.18 in 6.2 mi ENE 6.9 mph - N/A   Scattered Clouds
2:00 PM 85 °F - 63 °F 37% 30.20 in 19 mi East 5.8 mph - -   Partly Cloudy
2:00 PM 84.2 °F 85.0 °F 62.6 °F 48% 30.18 in 6.2 mi Variable 2.3 mph - N/A   Scattered Clouds
2:30 PM 82.4 °F 85.4 °F 68.0 °F 62% 30.18 in 6.2 mi SW 10.4 mph - N/A   Scattered Clouds
3:00 PM 80.6 °F 82.7 °F 66.2 °F 61% 30.18 in 6.2 mi SE 11.5 mph - N/A   Mostly Cloudy
3:30 PM 82.4 °F 83.9 °F 64.4 °F 54% 30.18 in 6.2 mi ESE 8.1 mph - N/A   Mostly Cloudy
4:00 PM 75.2 °F - 68.0 °F 78% 30.18 in 5.0 mi NE 4.6 mph - N/A Rain Rain
4:08 PM 75.2 °F - 68.0 °F 78% 30.18 in 6.2 mi NE 4.6 mph 16.1 mph N/A Rain Light Rain
4:30 PM 71.6 °F - 68.0 °F 88% 30.15 in 6.2 mi NNE 8.1 mph - N/A Rain Rain
4:37 PM 73.4 °F - 68.0 °F 83% 30.15 in 6.2 mi Variable 2.3 mph - N/A Rain Light Rain
5:00 PM 73.4 °F - 68.0 °F 83% 30.18 in 6.2 mi ENE 8.1 mph - N/A   Scattered Clouds
5:30 PM 75.2 °F - 69.8 °F 83% 30.18 in 6.2 mi ENE 10.4 mph - N/A   Scattered Clouds
6:00 PM 75.2 °F - 69.8 °F 83% 30.18 in 6.2 mi ENE 3.5 mph - N/A   Scattered Clouds
6:30 PM 75.2 °F - 69.8 °F 83% 30.18 in 6.2 mi Variable 2.3 mph - N/A   Scattered Clouds
7:00 PM 75.2 °F - 66.2 °F 73% 30.15 in 6.2 mi Calm Calm - N/A   Scattered Clouds
7:30 PM 77.0 °F - 64.4 °F 65% 30.15 in 6.2 mi Calm Calm - N/A Rain Light Rain
8:00 PM 74 °F - 67 °F 71% 30.17 in 16 mi NE 1.2 mph - -   Partly Cloudy
8:00 PM 75.2 °F - 66.2 °F 73% 30.15 in 6.2 mi NNE 2.3 mph - N/A   Partly Cloudy
8:30 PM 73.4 °F - 68.0 °F 83% 30.15 in 6.2 mi Calm Calm - N/A   Partly Cloudy
9:00 PM 73.4 °F - 69.8 °F 88% 30.18 in 6.2 mi Variable 1.2 mph - N/A   Partly Cloudy
9:30 PM 71.6 °F - 69.8 °F 94% 30.18 in 6.2 mi Variable 2.3 mph - N/A   Partly Cloudy
10:00 PM 71.6 °F - 69.8 °F 94% 30.18 in 6.2 mi Calm Calm - N/A   Partly Cloudy
10:30 PM 71.6 °F - 68.0 °F 88% 30.18 in 6.2 mi Calm Calm - N/A   Partly Cloudy
11:00 PM 71.6 °F - 68.0 °F 88% 30.15 in 6.2 mi NE 2.3 mph - N/A   Scattered Clouds
11:30 PM 71.6 °F - 68.0 °F 88% 30.15 in 6.2 mi Variable 1.2 mph - N/A   Scattered Clouds